Location: Famechon
(49.7599°N, 2.0615°E)
Time: 19:25:31
(UTC+00:00)

IRIDIUM 104 - Pass Details

Date: 03 February 2023
Orbit: 776 x 779 km, 86.4° (Epoch: 26 March)

Event Time Altitude Azimuth Distance (km) Brightness Sun altitude
Rises 18:25:00 0° 357° (N) 3,278 7.5 -15.6°
Reaches altitude 10° 18:27:23 10° 0° (N) 2,345 6.7 -16.0°
Maximum altitude 18:32:37 68° 84° (E) 843 4.2 -16.8°
Drops below altitude 10° 18:37:48 10° 167° (SSE) 2,326 6.7 -17.6°
Sets 18:40:09 0° 170° (S) 3,249 7.5 -18.0°
